This is the latest recevied weather packets stored in our database for station/object IW0REF-9. If no packets are shown the sender has not sent any weather packets the latest 10 day(s).
| Time | Temp. | Humidity | Pressure | Rain* | Wind** | Luminosity | Snow |
|---|---|---|---|---|---|---|---|
| 1778151219 | 25° C | 38% | 998.1 hPa | - | - | - | - |
| 1778150319 | 23.89° C | 39% | 998.1 hPa | - | - | - | - |
| 1778149419 | 23.89° C | 40% | 998.3 hPa | - | - | - | - |
| 1778148519 | 22.78° C | 41% | 998.4 hPa | - | - | - | - |
| 1778147619 | 22.78° C | 42% | 998.3 hPa | - | - | - | - |
| 1778146719 | 22.78° C | 43% | 998.4 hPa | - | - | - | - |
| 1778145819 | 22.22° C | 45% | 998.4 hPa | - | - | - | - |
| 1778144919 | 21.67° C | 44% | 998.3 hPa | - | - | - | - |
| 1778144019 | 21.11° C | 46% | 998.5 hPa | - | - | - | - |
| 1778143118 | 21.11° C | 46% | 998.7 hPa | - | - | - | - |
| 1778142218 | 20.56° C | 48% | 998.6 hPa | - | - | - | - |
| 1778141318 | 20° C | 48% | 998.4 hPa | - | - | - | - |
| 1778140418 | 20° C | 48% | 998.4 hPa | - | - | - | - |
| 1778139518 | 18.89° C | 48% | 998.4 hPa | - | - | - | - |
| 1778138618 | 18.33° C | 47% | 998.5 hPa | - | - | - | - |
| 1778137718 | 18.33° C | 47% | 998.4 hPa | - | - | - | - |
| 1778136818 | 17.78° C | 47% | 998.3 hPa | - | - | - | - |
| 1778135918 | 17.22° C | 47% | 998.3 hPa | - | - | - | - |
| 1778135017 | 16.67° C | 46% | 998.2 hPa | - | - | - | - |
| 1778134117 | 16.67° C | 47% | 998.1 hPa | - | - | - | - |
| 1778133217 | 16.11° C | 47% | 998 hPa | - | - | - | - |
| 1778132317 | 15.56° C | 48% | 997.6 hPa | - | - | - | - |
| 1778131417 | 15.56° C | 47% | 997.7 hPa | - | - | - | - |
| 1778130517 | 15° C | 48% | 997.8 hPa | - | - | - | - |
| 1778129617 | 14.44° C | 48% | 997.7 hPa | - | - | - | - |
* Rain since midnight (hover to see other rain measurements)
** Current wind speed in m/s (hover to see current wind gust speed)